Oklahoma City, OK

8:23 AM CST on February 23, 2017 (GMT -0600)
Tinker Air Force Base

Weather History for KTIK - January, 2014

Change the Weather History Date:

Wednesday, January 8, 2014

  Actual Average Record
Temperature  
Mean Temperature 35 °F -  
Max Temperature 39 °F 45 °F 71 °F (2006)
Min Temperature 31 °F 27 °F 8 °F (2015)
Degree Days  
Heating Degree Days 30    
Moisture  
Dew Point 30 °F    
Average Humidity 87    
Maximum Humidity 100    
Minimum Humidity 38    
Precipitation  
Precipitation 0.01 in - - ()
Sea Level Pressure  
Sea Level Pressure 30.17 in    
Wind  
Wind Speed 11 mph (ESE)    
Max Wind Speed 18 mph    
Max Gust Speed 17 mph    
Visibility 7 miles    
Events Rain    
Averages and records for this station are not official NWS values.
T = Trace of Precipitation, MM = Missing Value Source: NWS Daily Summary

Daily Weather History Graph

Daily Weather History Graph

Search for Another Location

Airport or City:

Trip Planner

Search our weather history database for the weather conditions in past years. The results will help you decide how hot, cold, wet, or windy it might be!

Date:

Astronomy

Jan. 08, 2014 Rise Set
Actual Time 7:39 AM CST 5:33 PM CST
Civil Twilight 7:11 AM CST 6:01 PM CST
Nautical Twilight 6:39 AM CST 6:33 PM CST
Astronomical Twilight 6:08 AM CST 7:04 PM CST
Moon 12:20 PM CST (1/8) 12:53 AM CST (1/8)
Length of Visible Light 10h 50m
Length of Day
9h 54m
First Quarter, 56% of the Moon is Illuminated
Jan 8
First Quarter
Jan 15
Full
Jan 23
Last Quarter
Jan 30
New
Feb 6
First Quarter

Hourly Weather History & Observations

Time (CST) Temp. Windchill Dew Point Humidity Pressure Visibility Wind Dir Wind Speed Gust Speed Precip Events Conditions
12:58 AM 34.0 °F 23.0 °F 10.4 °F 38% 30.17 in 10.0 mi South 18.4 mph - N/A   Clear
1:58 AM 34.2 °F 24.0 °F 11.1 °F 39% 30.17 in 10.0 mi South 16.1 mph - N/A   Clear
2:58 AM 33.6 °F 22.9 °F 11.8 °F 41% 30.17 in 10.0 mi South 17.3 mph - N/A   Clear
3:58 AM 33.3 °F 23.2 °F 14.7 °F 47% 30.15 in 10.0 mi South 15.0 mph - N/A   Clear
4:58 AM 32.9 °F 23.2 °F 16.0 °F 50% 30.13 in 10.0 mi South 13.8 mph - N/A   Clear
5:58 AM 31.6 °F 22.1 °F 15.6 °F 52% 30.14 in 10.0 mi SSE 12.7 mph - N/A   Partly Cloudy
6:58 AM 32.9 °F 22.8 °F 17.6 °F 53% 30.15 in 10.0 mi South 15.0 mph - N/A   Mostly Cloudy
7:03 AM 32.0 °F 21.2 °F 17.6 °F 55% 30.09 in 10.0 mi South 16.1 mph - N/A   Mostly Cloudy
7:58 AM 35.1 °F 25.5 °F 21.0 °F 57% 30.14 in 10.0 mi South 15.0 mph - N/A   Overcast
8:58 AM 36.7 °F 29.4 °F 23.4 °F 59% 30.18 in 10.0 mi SSE 10.4 mph - N/A   Overcast
9:58 AM 38.1 °F 30.7 °F 26.2 °F 62% 30.20 in 10.0 mi SSE 11.5 mph - N/A   Overcast
10:43 AM 39.2 °F 33.0 °F 28.4 °F 65% 30.15 in 10.0 mi SSE 9.2 mph - N/A   Overcast
10:58 AM 38.7 °F 31.8 °F 29.1 °F 69% 30.20 in 10.0 mi SE 10.4 mph - N/A   Overcast
11:24 AM 37.4 °F 29.3 °F 28.4 °F 70% 30.14 in 10.0 mi SE 12.7 mph 17.3 mph N/A   Overcast
11:58 AM 36.3 °F 28.9 °F 33.1 °F 88% 30.18 in - ESE 10.4 mph - N/A   Overcast
12:11 PM 35.6 °F 29.2 °F 32.0 °F 87% 30.12 in 4.0 mi ESE 8.1 mph - N/A   Overcast
12:25 PM 35.6 °F 29.2 °F 33.8 °F 93% 30.11 in 2.5 mi ESE 8.1 mph - N/A   Overcast
12:36 PM 35.6 °F 27.5 °F 35.6 °F 100% 30.11 in 2.5 mi ESE 11.5 mph - N/A   Overcast
12:49 PM 35.6 °F 28.0 °F 35.6 °F 100% 30.11 in 2.5 mi ESE 10.4 mph - N/A   Light Drizzle
12:58 PM 35.8 °F 28.3 °F 35.4 °F 99% 30.15 in 2.5 mi ESE 10.4 mph - 0.00 in Rain Light Rain
1:42 PM 35.6 °F 29.2 °F 35.6 °F 100% 30.10 in 2.5 mi ESE 8.1 mph - N/A   Light Drizzle
1:58 PM 35.8 °F 28.3 °F 35.8 °F 100% 30.15 in 2.5 mi East 10.4 mph - 0.00 in   Drizzle
2:14 PM 35.6 °F 29.2 °F 35.6 °F 100% 30.10 in 2.5 mi ESE 8.1 mph - N/A   Drizzle
2:15 PM 35.6 °F 28.6 °F 35.6 °F 100% 30.10 in 2.5 mi ESE 9.2 mph - N/A   Overcast
2:17 PM 35.6 °F 28.0 °F 35.6 °F 100% 30.10 in 3.0 mi East 10.4 mph - N/A   Overcast
2:48 PM 35.6 °F 28.6 °F 35.6 °F 100% 30.11 in 3.0 mi ESE 9.2 mph - N/A   Overcast
2:58 PM 35.1 °F 27.9 °F 35.1 °F 100% 30.16 in 3.0 mi East 9.2 mph - 0.01 in   Overcast
3:58 PM 34.9 °F 29.0 °F 34.9 °F 100% 30.17 in 5.0 mi East 6.9 mph - N/A   Overcast
4:58 PM 34.3 °F 27.0 °F 34.3 °F 100% 30.18 in 7.0 mi East 9.2 mph - N/A   Overcast
5:54 PM 32.0 °F 25.6 °F 32.0 °F 100% 30.14 in 10.0 mi ESE 6.9 mph - N/A   Overcast
5:58 PM 33.6 °F 28.4 °F 33.6 °F 100% 30.20 in 10.0 mi ESE 5.8 mph - N/A   Overcast
5:59 PM 32.0 °F 26.4 °F 32.0 °F 100% 30.15 in 10.0 mi ESE 5.8 mph - N/A   Overcast
6:26 PM 32.0 °F 24.8 °F 32.0 °F 100% 30.16 in 10.0 mi ESE 8.1 mph - N/A   Overcast
6:35 PM 32.0 °F 26.4 °F 32.0 °F 100% 30.16 in 10.0 mi East 5.8 mph - N/A   Overcast
6:58 PM 33.3 °F 27.1 °F 33.3 °F 100% 30.23 in 10.0 mi ESE 6.9 mph - N/A   Overcast
7:03 PM 32.0 °F 24.8 °F 32.0 °F 100% 30.17 in 10.0 mi East 8.1 mph - N/A   Overcast
7:22 PM 32.0 °F 26.4 °F 32.0 °F 100% 30.17 in 10.0 mi ESE 5.8 mph - N/A   Overcast
7:58 PM 32.7 °F 26.4 °F 32.7 °F 100% 30.25 in 10.0 mi ESE 6.9 mph - N/A   Overcast
8:21 PM 32.0 °F 27.5 °F 32.0 °F 100% 30.20 in 10.0 mi East 4.6 mph - N/A   Overcast
8:57 PM 32.0 °F 26.4 °F 32.0 °F 100% 30.20 in 10.0 mi East 5.8 mph - N/A   Overcast
8:58 PM 32.5 °F 28.1 °F 32.5 °F 100% 30.25 in 10.0 mi East 4.6 mph - N/A   Overcast
8:59 PM 32.0 °F 27.5 °F 32.0 °F 100% 30.20 in 10.0 mi ENE 4.6 mph - N/A   Overcast
9:35 PM 32.0 °F 26.4 °F 32.0 °F 100% 30.21 in 7.0 mi East 5.8 mph - N/A   Overcast
9:44 PM 32.0 °F 26.4 °F 32.0 °F 100% 30.21 in 6.0 mi East 5.8 mph - N/A   Overcast
9:58 PM 32.4 °F 26.9 °F 32.4 °F 100% 30.26 in 6.0 mi East 5.8 mph - N/A   Overcast
10:10 PM 32.0 °F 28.7 °F 32.0 °F 100% 30.21 in 5.0 mi East 3.5 mph - N/A   Overcast
10:24 PM 32.0 °F 26.4 °F 32.0 °F 100% 30.21 in 3.0 mi East 5.8 mph - N/A   Overcast
10:30 PM 32.0 °F 25.6 °F 32.0 °F 100% 30.21 in 3.0 mi East 6.9 mph - N/A   Overcast
10:58 PM 32.2 °F 27.7 °F 32.2 °F 100% 30.25 in 6.0 mi ENE 4.6 mph - N/A   Overcast
11:16 PM 32.0 °F 26.4 °F 32.0 °F 100% 30.20 in 3.0 mi East 5.8 mph - N/A   Overcast
11:41 PM 32.0 °F 27.5 °F 32.0 °F 100% 30.20 in 3.0 mi East 4.6 mph - N/A   Overcast
11:42 PM 32.0 °F 26.4 °F 32.0 °F 100% 30.20 in 3.0 mi ENE 5.8 mph - N/A   Light Drizzle
11:58 PM 32.0 °F 26.4 °F 32.0 °F 100% 30.25 in 3.0 mi ENE 5.8 mph - 0.00 in   Light Drizzle